Preview of NWS' New Version of Forecast
This preview is not operational and should not be used for support decisions.

Regional Weather Roundup (RWR)

Issued by National Weather Service (NWS)

                            
000
ASUS43 KBIS 170110
RWRND 

NORTH DAKOTA REGIONAL WEATHER ROUNDUP
NATIONAL WEATHER SERVICE BISMARCK ND
700 PM CST SAT FEB 16 2019

NOTE: "FAIR" INDICATES FEW OR NO CLOUDS BELOW 12,000 FEET WITH NO
SIGNIFICANT WEATHER AND/OR OBSTRUCTIONS TO VISIBILITY.


NDZ001>003-009>011-017-170200-
NORTHWEST NORTH DAKOTA
  
CITY           SKY/WX    TMP DP  RH WIND       PRES   REMARKS
WILLISTON      CLOUDY    10   3  73 NE6       29.92R WCI   0          
MINOT          CLOUDY     8   2  76 E12       29.97R WCI  -7          
MINOT AFB      CLOUDY     7   2  78 E12       29.97R WCI  -8          
$$
 
NDZ018>021-031>035-040>046-170200-
SOUTHWEST NORTH DAKOTA
  
CITY           SKY/WX    TMP DP  RH WIND       PRES   REMARKS
BISMARCK       FLURRIES  10   5  80 E10       29.92R WCI  -4          
DICKINSON      LGT SNOW   8   3  80 E6        29.80R WCI  -2          
GARRISON         N/A      7   4  87 E10       29.92R WCI  -8          
HETTINGER ARPT LGT SNOW   8   4  83 NE10      29.78R VSB 1   WCI  -6  
$$
 
NDZ004>008-012>016-024-026-027-054-170200-
NORTHEAST NORTH DAKOTA
  
CITY           SKY/WX    TMP DP  RH WIND       PRES   REMARKS
GRAND FORKS    CLOUDY    -4  -8  83 N8        30.10R WCI -19          
GRND FRKS AFB  CLOUDY    -4  -9  81 N8        30.10R WCI -20          
DEVILS LAKE    CLOUDY     4  -1  80 E9        30.04R WCI -10          
$$
 
NDZ022-023-025-028>030-036>039-047>053-170200-
SOUTHEAST NORTH DAKOTA
  
CITY           SKY/WX    TMP DP  RH WIND       PRES   REMARKS
FARGO          CLOUDY    13   7  77 NE7       30.05R WCI   3          
JAMESTOWN      CLOUDY     6   2  83 E13       29.98R WCI -10          
$$